Cloud_Cover
8 5 5 5 5 5 5 5 5 14 10 32 5 5 1 5 46 100 100 98 100 89 100 98 90 100 100 24 100 100 28 30 100 100 6 5 5 2 0 5 10 38 10
13 4 5 5 5 5 5 5 5 5 5 5 5 50 54 51 100 100 72 100 100 82 100 100 100 100 100 100 33 39 9 63 100 100 55 5 22 2 2 5 82 35 56
4 0 5 5 5 10 5 5 0 3 5 5 5 92 88 34 100 100 100 100 100 100 100 100 100 100 100 100 93 18 94 90 100 100 8 46 100 64 4 5 5 9 29
1 0 1 5 5 13 5 5 5 5 2 5 4 5 97 96 78 100 100 95 99 100 100 100 100 100 100 100 100 100 95 100 100 96 58 17 57 92 13 5 6 5 6
0 0 4 5 5 5 23 5 4 4 11 6 13 37 74 74 44 98 98 100 100 100 100 100 100 100 100 100 100 100 100 65 34 12 99 100 100 97 17 5 5 5 8
8 2 0 5 5 5 5 5 1 4 11 10 9 5 5 47 99 8 50 68 85 100 100 100 100 100 100 100 100 100 100 100 93 80 88 24 61 90 46 5 5 8 5
37 2 0 5 5 5 5 5 1 0 0 0 2 5 17 51 27 7 19 70 100 100 100 100 100 100 100 100 100 100 100 100 100 100 100 45 24 5 95 5 22 100 31
98 16 1 0 5 3 5 2 0 0 0 1 0 0 7 0 4 24 98 52 99 100 100 100 100 100 100 100 100 100 100 100 95 100 100 87 95 5 16 30 100 100 5
65 36 12 1 2 4 1 1 5 1 0 0 0 2 0 8 0 2 6 64 99 100 100 100 100 100 100 100 100 100 100 100 100 99 100 74 100 93 5 19 100 42 81
97 98 57 32 20 11 4 4 5 5 0 0 1 0 0 0 0 0 0 0 64 96 100 100 100 100 100 100 100 100 100 100 100 100 100 50 70 100 15 8 87 49 100
91 100 24 74 100 77 68 22 26 11 11 8 9 5 5 9 62 16 0 0 0 25 100 90 91 92 100 100 100 100 100 100 100 100 100 100 100 100 9 98 76 89 100
65 70 99 6 35 92 100 100 89 97 81 85 99 98 100 100 100 99 100 86 3 1 77 100 100 85 100 50 100 100 100 100 100 100 100 100 100 100 72 26 100 100 45
85 100 100 88 5 14 100 100 100 100 100 100 100 100 100 100 100 100 100 100 93 5 14 97 100 100 99 93 91 76 100 100 100 100 100 100 100 100 93 44 100 100 80
76 68 88 98 100 30 98 49 54 52 98 100 100 100 100 89 77 61 60 99 100 100 99 100 62 100 100 100 100 52 97 100 100 94 100 100 98 100 100 12 100 100 100
10 40 86 86 17 64 54 25 8 66 98 98 6 89 100 99 90 49 6 14 94 100 100 100 100 100 75 100 100 65 96 100 100 97 86 100 100 100 100 66 94 100 100
1 42 51 58 46 23 19 7 44 96 66 7 77 68 5 36 83 100 92 56 88 95 100 100 100 100 100 91 100 100 100 100 100 93 97 98 100 100 100 100 100 100 100
6 20 7 92 75 47 100 100 83 99 93 100 100 100 21 12 5 40 80 49 13 49 100 100 100 76 100 100 100 100 100 100 100 90 100 100 76 100 100 100 100 100 100
6 69 83 91 85 38 78 27 100 100 100 100 100 100 100 49 32 10 5 5 15 100 100 100 100 78 100 53 100 100 100 100 100 100 100 99 85 98 100 100 100 100 100
1 100 100 96 96 100 99 92 74 100 61 100 98 100 100 13 57 40 10 36 58 100 77 64 100 100 100 100 100 45 100 100 97 100 100 100 100 100 100 100 100 100 84
61 93 95 97 100 100 100 86 100 100 100 100 82 100 100 94 15 5 91 81 97 99 56 6 6 100 12 33 79 63 100 100 100 100 100 100 100 100 95 100 100 100 100
61 98 26 68 100 100 100 100 87 96 100 96 100 100 68 57 63 17 5 56 100 45 54 84 100 13 27 69 58 47 22 50 100 100 100 100 100 100 100 75 100 100 100
99 98 11 95 100 100 100 100 100 97 81 56 8 32 58 100 64 69 58 91 12 5 5 15 97 73 85 9 5 28 47 8 49 100 100 100 100 96 100 100 99 98 100
100 99 100 100 99 100 96 100 100 80 78 98 95 58 100 100 51 100 94 100 6 3 5 7 5 67 89 98 77 51 80 26 57 100 100 100 100 100 100 100 100 100 70
100 100 100 100 100 100 100 100 100 97 55 71 16 28 58 92 99 100 100 44 5 10 19 5 92 62 100 100 100 100 33 88 60 100 100 100 100 100 100 100 100 100 100
100 100 100 81 99 93 100 89 57 83 71 72 86 100 100 100 100 100 47 11 18 1 5 27 38 99 32 99 100 100 85 77 70 51 100 100 100 100 100 100 100 100 100
100 100 100 100 89 23 16 8 26 86 48 89 71 93 33 62 14 7 24 24 52 49 23 29 95 100 100 37 75 100 100 85 51 67 100 100 100 100 100 100 100 100 100